Hourly Data Report for September 08, 2017

All times are specified in Local Standard Time (LST). Add 1 hour to adjust for Daylight Saving Time where and when it is observed.

SATURNA ISLAND CS
BRITISH COLUMBIA

48°47'02.067" N
123°02'41.082" W
24.40 m
1017101
71473
WEZ

Download Data

Hourly Data (September 2017)
Hourly Data Report for September 8, 2017
Temp Definition
°C
Dew Point Temp Definition
°C
Rel Hum Definition
%
Wind Dir Definition
10's deg

Wind Spd Definition
km/h
Visibility Definition
km
Stn Press Definition
kPa
Hmdx Definition


Wind Chill Definition


Weather Definition


TIME
00:00 15.2 13.3 88 13 5   100.97     LegendNANA
01:00 14.6 12.8 89 15 9   101.01     LegendNANA
02:00 15.0 13.3 89 15 6   101.00     LegendNANA
03:00 15.0 13.4 90 12 13   101.01     LegendNANA
04:00 14.5 12.8 90 24 12   101.02     LegendNANA
05:00 13.8 12.5 92 22 16   101.02     LegendNANA
06:00 13.1 12.1 93 22 22   101.03     LegendNANA
07:00 14.1 13.1 94 22 13   101.12     LegendNANA
08:00 13.8 12.9 94 21 8   101.12     LegendNANA
09:00 13.4 12.5 94 22 13   101.17     LegendNANA
10:00 14.6 13.6 94 22 11   101.17     LegendNANA
11:00 14.6 13.6 94 21 15   101.17     LegendNANA
12:00 15.6 14.1 91 23 12   101.11     LegendNANA
13:00 16.6 14.8 89 23 10   101.11     LegendNANA
14:00 17.7 14.5 81 22 14   101.10     LegendNANA
15:00 18.4 14.8 80 21 11   101.06     LegendNANA
16:00 15.6 13.3 86 19 6   101.04     LegendNANA
17:00 15.9 13.8 88 16 5   101.02     LegendNANA
18:00 14.6 12.9 90 14 7   100.97     LegendNANA
19:00 14.8 12.8 88 20 14   100.96     LegendNANA
20:00 14.8 10.9 77 23 18   100.98     LegendNANA
21:00 14.3 10.1 76 22 20   100.99     LegendNANA
22:00 14.7 9.5 71 22 17   101.00     LegendNANA
23:00 15.0 8.9 67 23 14   101.06     LegendNANA

Notes on Data Quality.

Legend

  • E = Estimated
  • M = Missing
  • NA = Not Available
  • ‡ = Partner data that is not subject to review by the National Climate Archives
Date modified: